Ionia, MI

12:09 PM EDT on March 25, 2017 (GMT -0400)
Ionia

Weather History for KY70 - June, 2013

Change the Weather History Date:

Friday, June 28, 2013

  Actual Average (KGRR) Record (KGRR)
Temperature  
Mean Temperature 72 °F -  
Max Temperature 79 °F 80 °F 97 °F (1931)
Min Temperature 64 °F 58 °F 43 °F (1992)
Cooling Degree Days 6    
Growing Degree Days 22 (Base 50)    
Moisture  
Dew Point 65 °F    
Average Humidity 85    
Maximum Humidity 99    
Minimum Humidity 56    
Precipitation  
Precipitation 0.05 in - - ()
Sea Level Pressure  
Sea Level Pressure 29.61 in    
Wind  
Wind Speed 4 mph (NW)    
Max Wind Speed 13 mph    
Max Gust Speed 23 mph    
Visibility 9 miles    
Events Rain    
Averages and records for this station are not official NWS values.
T = Trace of Precipitation, MM = Missing Value Source: NWS Daily Summary

Daily Weather History Graph

Daily Weather History Graph

Search for Another Location

Airport or City:

Trip Planner

Search our weather history database for the weather conditions in past years. The results will help you decide how hot, cold, wet, or windy it might be!

Date:

Astronomy

Jun. 28, 2013 Rise Set
Actual Time 6:03 AM EDT 9:23 PM EDT
Civil Twilight 5:28 AM EDT 9:58 PM EDT
Nautical Twilight 4:42 AM EDT 10:44 PM EDT
Astronomical Twilight 3:46 AM EDT 11:40 PM EDT
Moon 12:11 AM EDT (6/28) 12:20 PM EDT (6/28)
Length of Visible Light 16h 29m
Length of Day
15h 19m
Waning Gibbous, 66% of the Moon is Illuminated
Jun 28
Waning Gibbous
Jun 30
Last Quarter
Jul 8
New
Jul 15
First Quarter
Jul 22
Full

Hourly Weather History & Observations

Time (EDT) Temp. Dew Point Humidity Pressure Visibility Wind Dir Wind Speed Gust Speed Precip Events Conditions
12:14 AM 68.7 °F 67.1 °F 95% 29.66 in 10.0 mi Calm Calm - N/A   Mostly Cloudy
12:34 AM 68.0 °F 67.1 °F 97% 29.67 in 10.0 mi NE 4.6 mph 16.1 mph N/A   Overcast
12:54 AM 68.9 °F 67.1 °F 94% 29.66 in 10.0 mi Calm Calm - N/A   Mostly Cloudy
1:14 AM 68.7 °F 66.6 °F 93% 29.66 in 10.0 mi West 3.5 mph - N/A   Scattered Clouds
1:34 AM 68.0 °F 66.4 °F 95% 29.65 in 10.0 mi WSW 3.5 mph - N/A   Clear
1:54 AM 67.1 °F 65.8 °F 96% 29.65 in 10.0 mi West 5.8 mph - N/A   Clear
2:34 AM 67.1 °F 65.5 °F 95% 29.64 in 10.0 mi West 6.9 mph - N/A   Clear
2:54 AM 67.1 °F 65.7 °F 95% 29.64 in 10.0 mi West 5.8 mph - N/A   Clear
3:14 AM 67.8 °F 66.2 °F 95% 29.63 in 10.0 mi West 4.6 mph - N/A   Clear
3:34 AM 67.5 °F 66.2 °F 96% 29.63 in 10.0 mi West 4.6 mph - N/A   Clear
3:54 AM 67.6 °F 66.6 °F 96% 29.64 in 4.0 mi West 6.9 mph - N/A   Mostly Cloudy
4:14 AM 67.6 °F 67.1 °F 98% 29.64 in 1.5 mi WNW 6.9 mph - N/A   Overcast
4:34 AM 67.6 °F 67.1 °F 98% 29.64 in 1.2 mi WNW 8.1 mph - N/A   Overcast
4:54 AM 68.2 °F 67.6 °F 98% 29.64 in 3.0 mi Calm Calm - N/A   Overcast
5:14 AM 68.0 °F 67.3 °F 98% 29.64 in 2.5 mi Calm Calm - N/A   Overcast
5:34 AM 68.0 °F 67.1 °F 97% 29.64 in 3.0 mi Calm Calm - N/A   Overcast
5:54 AM 67.6 °F 67.1 °F 98% 29.63 in 2.0 mi North 3.5 mph - N/A   Overcast
6:14 AM 67.1 °F 66.6 °F 98% 29.63 in 1.2 mi NNE 3.5 mph - N/A   Overcast
6:34 AM 66.6 °F 66.2 °F 99% 29.63 in 1.5 mi Calm Calm - N/A   Mostly Cloudy
6:54 AM 66.6 °F 66.0 °F 98% 29.63 in 4.0 mi Calm Calm - N/A   Clear
7:14 AM 66.4 °F 65.7 °F 98% 29.63 in 2.5 mi North 3.5 mph - N/A   Scattered Clouds
7:34 AM 66.4 °F 65.7 °F 98% 29.63 in 4.0 mi NNE 3.5 mph - N/A   Mostly Cloudy
7:54 AM 67.5 °F 65.8 °F 95% 29.63 in 7.0 mi North 4.6 mph - N/A   Overcast
8:14 AM 67.8 °F 65.5 °F 92% 29.62 in 7.0 mi Calm Calm - N/A   Mostly Cloudy
8:34 AM 68.2 °F 65.1 °F 90% 29.63 in 10.0 mi NW 4.6 mph - N/A   Overcast
8:54 AM 68.5 °F 64.8 °F 88% 29.62 in 10.0 mi NW 3.5 mph - N/A   Overcast
9:14 AM 68.9 °F 65.3 °F 88% 29.62 in 10.0 mi WNW 4.6 mph - N/A   Overcast
9:34 AM 70.2 °F 65.1 °F 84% 29.62 in 10.0 mi West 5.8 mph - N/A   Overcast
9:54 AM 71.6 °F 65.8 °F 82% 29.62 in 10.0 mi West 4.6 mph - N/A   Mostly Cloudy
10:14 AM 71.1 °F 64.9 °F 81% 29.62 in 10.0 mi WNW 4.6 mph - N/A   Mostly Cloudy
10:34 AM 71.6 °F 64.6 °F 78% 29.62 in 10.0 mi Calm Calm - N/A   Overcast
10:54 AM 72.1 °F 63.9 °F 75% 29.61 in 10.0 mi NW 3.5 mph - N/A   Scattered Clouds
11:14 AM 74.1 °F 64.2 °F 71% 29.61 in 10.0 mi Calm Calm - N/A   Scattered Clouds
11:34 AM 74.7 °F 63.0 °F 67% 29.61 in 10.0 mi Calm Calm - N/A   Mostly Cloudy
11:54 AM 75.0 °F 63.9 °F 68% 29.61 in 10.0 mi NW 4.6 mph - N/A   Scattered Clouds
12:14 PM 75.6 °F 63.0 °F 65% 29.60 in 10.0 mi NNW 3.5 mph - N/A   Mostly Cloudy
12:34 PM 76.1 °F 64.9 °F 68% 29.60 in 10.0 mi WNW 5.8 mph - N/A   Mostly Cloudy
12:54 PM 77.9 °F 63.5 °F 61% 29.59 in 10.0 mi West 4.6 mph - N/A   Mostly Cloudy
1:14 PM 77.4 °F 63.5 °F 62% 29.59 in 10.0 mi WNW 10.4 mph 16.1 mph N/A   Mostly Cloudy
1:34 PM 79.5 °F 64.9 °F 61% 29.58 in 10.0 mi West 12.7 mph - N/A   Mostly Cloudy
1:54 PM 79.3 °F 63.5 °F 58% 29.58 in 10.0 mi West 9.2 mph - N/A   Mostly Cloudy
2:14 PM 79.2 °F 62.4 °F 56% 29.57 in 10.0 mi NW 6.9 mph 17.3 mph N/A   Mostly Cloudy
2:34 PM 79.3 °F 62.2 °F 56% 29.57 in 10.0 mi West 12.7 mph - N/A   Mostly Cloudy
2:54 PM 78.8 °F 63.1 °F 59% 29.56 in 10.0 mi NW 8.1 mph - N/A   Mostly Cloudy
3:14 PM 79.5 °F 64.4 °F 60% 29.56 in 10.0 mi NW 6.9 mph - N/A   Overcast
3:34 PM 78.3 °F 61.2 °F 56% 29.55 in 10.0 mi NW 6.9 mph - N/A Rain Light Rain
3:54 PM 74.5 °F 64.2 °F 70% 29.54 in 7.0 mi NW 5.8 mph 17.3 mph 0.02 in Rain Heavy Rain
4:14 PM 74.1 °F 65.5 °F 74% 29.55 in 10.0 mi West 10.4 mph 20.7 mph N/A   Mostly Cloudy
4:34 PM 72.1 °F 64.9 °F 78% 29.56 in 10.0 mi WNW 8.1 mph - N/A   Drizzle
4:54 PM 76.1 °F 67.3 °F 74% 29.55 in 10.0 mi West 9.2 mph - N/A   Overcast
5:14 PM 74.7 °F 66.9 °F 77% 29.56 in 10.0 mi NW 10.4 mph - N/A Rain Light Rain
5:34 PM 70.5 °F 61.9 °F 74% 29.58 in 10.0 mi North 12.7 mph 23.0 mph N/A   Light Drizzle
5:54 PM 68.7 °F 61.0 °F 76% 29.59 in 10.0 mi North 6.9 mph - N/A   Mostly Cloudy
6:14 PM 67.5 °F 61.7 °F 82% 29.59 in 10.0 mi North 3.5 mph - N/A Rain Light Rain
6:34 PM 66.6 °F 62.2 °F 86% 29.59 in 10.0 mi NNW 3.5 mph - 0.01 in Rain Rain
6:54 PM 66.6 °F 62.8 °F 88% 29.59 in 10.0 mi NW 3.5 mph - 0.01 in Rain Light Rain
7:14 PM 67.1 °F 63.9 °F 89% 29.59 in 10.0 mi WNW 3.5 mph - 0.01 in Rain Light Rain
7:34 PM 66.4 °F 63.7 °F 91% 29.59 in 10.0 mi Calm Calm - 0.01 in Rain Light Rain
7:54 PM 66.9 °F 63.9 °F 90% 29.59 in 10.0 mi Calm Calm - 0.02 in Rain Light Rain
8:14 PM 67.3 °F 64.4 °F 90% 29.59 in 10.0 mi West 4.6 mph - N/A   Overcast
8:34 PM 66.9 °F 63.5 °F 89% 29.60 in 10.0 mi Calm Calm - N/A Rain Light Rain
8:54 PM 67.1 °F 63.3 °F 88% 29.60 in 10.0 mi Calm Calm - N/A   Drizzle
9:14 PM 67.1 °F 63.9 °F 89% 29.60 in 10.0 mi Calm Calm - N/A   Light Drizzle
9:34 PM 65.5 °F 63.7 °F 94% 29.59 in 10.0 mi Calm Calm - N/A   Scattered Clouds
9:54 PM 64.4 °F 63.5 °F 97% 29.59 in 10.0 mi Calm Calm - N/A   Mostly Cloudy
10:14 PM 65.1 °F 64.4 °F 98% 29.60 in 10.0 mi Calm Calm - N/A   Overcast
10:34 PM 65.3 °F 64.4 °F 97% 29.59 in 10.0 mi Calm Calm - N/A   Overcast
10:54 PM 64.8 °F 64.0 °F 98% 29.60 in 10.0 mi Calm Calm - N/A   Overcast
11:14 PM 64.8 °F 64.4 °F 99% 29.60 in 10.0 mi Calm Calm - N/A   Overcast
11:34 PM 65.3 °F 64.8 °F 98% 29.60 in 10.0 mi Calm Calm - N/A   Mostly Cloudy
11:54 PM 64.8 °F 64.0 °F 98% 29.60 in 10.0 mi Calm Calm - N/A   Scattered Clouds